Time,TemperatureF,DewpointF,PressureIn,WindDirection,WindDirectionDegrees,WindSpeedMPH,WindSpeedGustMPH,Humidity,HourlyPrecipIn,Conditions,Clouds,dailyrainin,SolarRadiationWatts/m^2,SoftwareType,DateUTC
2013-06-16 00:02:00,59.0,57.0,29.84,NNW,336,6.0,14.0,92,0.01,,,0.01,0.000000,,2013-06-16 04:02:00,
2013-06-16 00:12:00,59.0,57.0,29.83,NNW,331,8.0,13.0,93,0.01,,,0.01,0.000000,,2013-06-16 04:12:00,
2013-06-16 00:23:00,60.0,58.0,29.82,WNW,286,1.0,12.0,94,0.01,,,0.01,0.000000,,2013-06-16 04:23:00,
2013-06-16 00:34:00,60.0,58.0,29.82,WNW,288,0.0,9.0,94,0.01,,,0.01,0.000000,,2013-06-16 04:34:00,
2013-06-16 00:42:00,60.0,58.0,29.82,WNW,288,0.0,0.0,94,0.02,,,0.02,0.000000,,2013-06-16 04:42:00,
2013-06-16 00:53:00,60.0,58.0,29.82,WNW,288,0.0,0.0,94,0.02,,,0.02,0.000000,,2013-06-16 04:53:00,
2013-06-16 01:01:00,60.0,59.0,29.82,WNW,288,0.0,0.0,95,0.01,,,0.02,0.000000,,2013-06-16 05:01:00,
2013-06-16 01:12:00,60.0,59.0,29.82,WNW,292,0.0,0.0,95,0.01,,,0.02,0.000000,,2013-06-16 05:12:00,
2013-06-16 01:22:00,60.0,59.0,29.82,WNW,303,1.0,10.0,95,0.02,,,0.03,0.000000,,2013-06-16 05:22:00,
2013-06-16 01:34:00,59.0,58.0,29.82,WNW,303,7.0,16.0,95,0.02,,,0.03,0.000000,,2013-06-16 05:34:00,
2013-06-16 01:43:00,58.0,57.0,29.82,WNW,293,0.0,10.0,95,0.02,,,0.04,0.000000,,2013-06-16 05:43:00,
2013-06-16 01:52:00,58.0,57.0,29.82,NW,306,0.0,9.0,96,0.04,,,0.06,0.000000,,2013-06-16 05:52:00,
2013-06-16 02:01:00,58.0,57.0,29.82,NW,308,0.0,0.0,96,0.08,,,0.10,0.000000,,2013-06-16 06:01:00,
2013-06-16 02:11:00,58.0,57.0,29.82,West,272,0.0,0.0,96,0.12,,,0.14,0.000000,,2013-06-16 06:11:00,
2013-06-16 02:22:00,58.0,57.0,29.80,SSE,157,0.0,2.0,96,0.17,,,0.20,0.000000,,2013-06-16 06:22:00,
2013-06-16 02:33:00,58.0,57.0,29.80,SSE,153,0.0,0.0,96,0.20,,,0.23,0.000000,,2013-06-16 06:33:00,
2013-06-16 02:43:00,59.0,58.0,29.78,SSE,155,0.0,0.0,96,0.22,,,0.26,0.000000,,2013-06-16 06:43:00,
2013-06-16 02:52:00,59.0,58.0,29.75,SE,137,4.0,9.0,97,0.23,,,0.29,0.000000,,2013-06-16 06:52:00,
2013-06-16 03:01:00,59.0,58.0,29.75,SE,145,10.0,15.0,97,0.20,,,0.30,0.000000,,2013-06-16 07:01:00,
2013-06-16 03:11:00,59.0,58.0,29.73,SE,138,2.0,13.0,97,0.17,,,0.31,0.000000,,2013-06-16 07:11:00,
2013-06-16 03:22:00,59.0,58.0,29.72,SSE,149,6.0,15.0,97,0.11,,,0.31,0.000000,,2013-06-16 07:22:00,
2013-06-16 03:33:00,59.0,58.0,29.72,SE,146,0.0,9.0,97,0.08,,,0.31,0.000000,,2013-06-16 07:33:00,
2013-06-16 03:43:00,60.0,59.0,29.73,NW,325,0.0,0.0,97,0.05,,,0.31,0.000000,,2013-06-16 07:43:00,
2013-06-16 03:53:00,60.0,59.0,29.74,NW,319,0.0,4.0,97,0.02,,,0.31,0.000000,,2013-06-16 07:53:00,
2013-06-16 04:02:00,60.0,59.0,29.74,WNW,290,0.0,0.0,97,0.01,,,0.31,0.000000,,2013-06-16 08:02:00,
2013-06-16 04:12:00,60.0,59.0,29.74,West,278,0.0,0.0,97,0.00,,,0.31,0.000000,,2013-06-16 08:12:00,
2013-06-16 04:22:00,60.0,59.0,29.74,NW,318,0.0,0.0,97,0.00,,,0.31,0.000000,,2013-06-16 08:22:00,
2013-06-16 04:33:00,60.0,59.0,29.74,WNW,303,2.0,9.0,97,0.00,,,0.31,0.000000,,2013-06-16 08:33:00,
2013-06-16 04:43:00,59.0,58.0,29.76,WNW,298,6.0,11.0,97,0.00,,,0.31,0.000000,,2013-06-16 08:43:00,
2013-06-16 04:54:00,59.0,58.0,29.75,WNW,303,0.0,0.0,97,0.00,,,0.31,0.000000,,2013-06-16 08:54:00,
2013-06-16 05:02:00,57.0,56.0,29.75,WNW,285,12.0,21.0,97,0.00,,,0.31,0.000000,,2013-06-16 09:02:00,
2013-06-16 05:11:00,57.0,56.0,29.77,WNW,287,0.0,15.0,97,0.00,,,0.31,0.000000,,2013-06-16 09:11:00,
2013-06-16 05:22:00,57.0,56.0,29.77,NW,307,5.0,13.0,97,0.01,,,0.32,0.000000,,2013-06-16 09:22:00,
2013-06-16 05:33:00,57.0,56.0,29.77,WNW,286,0.0,14.0,97,0.02,,,0.33,0.000000,,2013-06-16 09:33:00,
2013-06-16 05:43:00,57.0,56.0,29.77,WNW,286,0.0,0.0,97,0.03,,,0.34,0.000000,,2013-06-16 09:43:00,
2013-06-16 05:52:00,57.0,56.0,29.76,WNW,302,0.0,0.0,98,0.03,,,0.34,0.000000,,2013-06-16 09:52:00,
2013-06-16 06:02:00,57.0,56.0,29.76,WNW,292,0.0,0.0,98,0.03,,,0.34,0.000000,,2013-06-16 10:02:00,
2013-06-16 06:12:00,57.0,56.0,29.75,WNW,284,0.0,0.0,98,0.03,,,0.34,0.000000,,2013-06-16 10:12:00,
2013-06-16 06:22:00,58.0,57.0,29.75,WNW,284,0.0,0.0,98,0.02,,,0.34,0.000000,,2013-06-16 10:22:00,
2013-06-16 06:33:00,57.0,56.0,29.75,WNW,284,0.0,0.0,98,0.01,,,0.34,5.000000,,2013-06-16 10:33:00,
2013-06-16 06:43:00,57.0,56.0,29.75,WNW,284,0.0,0.0,98,0.00,,,0.34,9.000000,,2013-06-16 10:43:00,
2013-06-16 06:53:00,57.0,56.0,29.75,WNW,284,0.0,0.0,98,0.00,,,0.34,9.000000,,2013-06-16 10:53:00,
2013-06-16 07:02:00,58.0,57.0,29.75,West,281,0.0,0.0,98,0.00,,,0.34,21.000000,,2013-06-16 11:02:00,
2013-06-16 07:11:00,58.0,57.0,29.76,West,281,0.0,0.0,98,0.00,,,0.34,16.000000,,2013-06-16 11:11:00,
2013-06-16 07:22:00,58.0,57.0,29.77,West,281,0.0,0.0,98,0.00,,,0.34,26.000000,,2013-06-16 11:22:00,
2013-06-16 07:34:00,58.0,57.0,29.77,West,281,0.0,0.0,98,0.00,,,0.34,26.000000,,2013-06-16 11:34:00,
2013-06-16 07:43:00,58.0,57.0,29.77,West,281,0.0,0.0,98,0.00,,,0.34,42.000000,,2013-06-16 11:43:00,
2013-06-16 07:52:00,58.0,57.0,29.77,West,279,0.0,0.0,98,0.00,,,0.34,60.000000,,2013-06-16 11:52:00,
2013-06-16 08:02:00,59.0,58.0,29.77,West,276,0.0,0.0,98,0.00,,,0.34,90.000000,,2013-06-16 12:02:00,
2013-06-16 08:12:00,59.0,58.0,29.77,West,276,0.0,0.0,98,0.00,,,0.34,46.000000,,2013-06-16 12:12:00,
2013-06-16 08:22:00,59.0,58.0,29.77,West,276,0.0,0.0,98,0.00,,,0.34,83.000000,,2013-06-16 12:22:00,
2013-06-16 08:32:00,60.0,59.0,29.77,West,276,0.0,0.0,98,0.00,,,0.34,86.000000,,2013-06-16 12:32:00,
2013-06-16 08:42:00,60.0,59.0,29.77,NW,312,0.0,1.0,98,0.00,,,0.34,62.000000,,2013-06-16 12:42:00,
2013-06-16 08:53:00,57.0,56.0,29.78,NW,307,0.0,10.0,98,0.00,,,0.34,74.000000,,2013-06-16 12:53:00,
2013-06-16 09:01:00,56.0,55.0,29.78,WNW,301,0.0,0.0,98,0.00,,,0.34,105.000000,,2013-06-16 13:01:00,
2013-06-16 09:11:00,56.0,55.0,29.77,WNW,301,0.0,0.0,98,0.00,,,0.34,148.000000,,2013-06-16 13:11:00,
2013-06-16 09:22:00,57.0,56.0,29.77,WNW,301,0.0,0.0,98,0.00,,,0.34,125.000000,,2013-06-16 13:22:00,
2013-06-16 09:34:00,55.0,54.0,29.77,NW,306,0.0,13.0,98,0.00,,,0.34,104.000000,,2013-06-16 13:34:00,
2013-06-16 09:43:00,55.0,54.0,29.78,NW,319,0.0,0.0,98,0.00,,,0.34,98.000000,,2013-06-16 13:43:00,
2013-06-16 09:53:00,55.0,54.0,29.79,WNW,299,0.0,0.0,98,0.00,,,0.34,125.000000,,2013-06-16 13:53:00,
2013-06-16 10:02:00,56.0,55.0,29.79,WNW,299,0.0,0.0,98,0.00,,,0.34,121.000000,,2013-06-16 14:02:00,
2013-06-16 10:12:00,56.0,55.0,29.79,NW,304,0.0,0.0,98,0.00,,,0.34,160.000000,,2013-06-16 14:12:00,
2013-06-16 10:22:00,56.0,55.0,29.79,North,355,0.0,0.0,98,0.00,,,0.34,171.000000,,2013-06-16 14:22:00,
2013-06-16 10:34:00,57.0,56.0,29.79,North,355,0.0,0.0,98,0.00,,,0.34,244.000000,,2013-06-16 14:34:00,
2013-06-16 10:43:00,57.0,56.0,29.79,North,355,0.0,0.0,98,0.00,,,0.34,297.000000,,2013-06-16 14:43:00,
2013-06-16 10:52:00,59.0,58.0,29.78,North,355,0.0,0.0,98,0.00,,,0.34,225.000000,,2013-06-16 14:52:00,
2013-06-16 11:02:00,59.0,58.0,29.78,North,355,0.0,0.0,98,0.00,,,0.34,230.000000,,2013-06-16 15:02:00,
2013-06-16 11:12:00,59.0,58.0,29.78,NNW,340,6.0,10.0,98,0.00,,,0.34,260.000000,,2013-06-16 15:12:00,
2013-06-16 11:23:00,57.0,56.0,29.78,NW,304,4.0,10.0,98,0.00,,,0.34,287.000000,,2013-06-16 15:23:00,
2013-06-16 11:33:00,57.0,56.0,29.78,NW,311,0.0,6.0,98,0.00,,,0.34,260.000000,,2013-06-16 15:33:00,
2013-06-16 11:43:00,58.0,57.0,29.79,NW,311,0.0,0.0,98,0.00,,,0.34,352.000000,,2013-06-16 15:43:00,
2013-06-16 11:52:00,60.0,59.0,29.79,NW,311,0.0,1.0,98,0.00,,,0.34,668.000000,,2013-06-16 15:52:00,
2013-06-16 12:02:00,61.0,60.0,29.79,West,259,2.0,5.0,98,0.00,,,0.34,338.000000,,2013-06-16 16:02:00,
2013-06-16 12:12:00,62.0,61.0,29.78,SW,236,0.0,10.0,98,0.00,,,0.34,313.000000,,2013-06-16 16:12:00,
2013-06-16 12:23:00,63.0,62.0,29.78,SW,229,2.0,11.0,98,0.00,,,0.34,316.000000,,2013-06-16 16:23:00,
2013-06-16 12:33:00,63.0,62.0,29.78,SSW,200,6.0,10.0,98,0.00,,,0.34,338.000000,,2013-06-16 16:33:00,
2013-06-16 12:43:00,65.0,64.0,29.77,SW,218,9.0,13.0,97,0.00,,,0.34,515.000000,,2013-06-16 16:43:00,
2013-06-16 12:53:00,65.0,63.0,29.77,SW,218,0.0,14.0,94,0.00,,,0.34,533.000000,,2013-06-16 16:53:00,
2013-06-16 13:02:00,66.0,63.0,29.77,SSW,211,5.0,13.0,91,0.00,,,0.34,345.000000,,2013-06-16 17:02:00,
2013-06-16 13:12:00,67.0,64.0,29.77,SW,234,5.0,15.0,89,0.00,,,0.34,390.000000,,2013-06-16 17:12:00,
2013-06-16 13:22:00,67.0,63.0,29.77,SW,215,7.0,13.0,88,0.00,,,0.34,279.000000,,2013-06-16 17:22:00,
2013-06-16 13:34:00,67.0,63.0,29.77,SSW,206,1.0,14.0,87,0.00,,,0.34,297.000000,,2013-06-16 17:34:00,
2013-06-16 13:43:00,67.0,63.0,29.77,SSW,200,11.0,16.0,86,0.00,,,0.34,320.000000,,2013-06-16 17:43:00,
2013-06-16 13:53:00,67.0,63.0,29.78,SW,217,5.0,15.0,87,0.00,,,0.34,714.000000,,2013-06-16 17:53:00,
2013-06-16 14:02:00,68.0,63.0,29.78,WSW,250,8.0,17.0,83,0.00,,,0.34,295.000000,,2013-06-16 18:02:00,
2013-06-16 14:12:00,67.0,63.0,29.78,SW,218,10.0,15.0,87,0.00,,,0.34,476.000000,,2013-06-16 18:12:00,
2013-06-16 14:22:00,69.0,64.0,29.77,SW,227,11.0,16.0,83,0.00,,,0.34,364.000000,,2013-06-16 18:22:00,
2013-06-16 14:33:00,69.0,64.0,29.77,SSW,209,8.0,15.0,84,0.00,,,0.34,1118.000000,,2013-06-16 18:33:00,
2013-06-16 14:43:00,70.0,64.0,29.77,WSW,246,12.0,16.0,81,0.00,,,0.34,1081.000000,,2013-06-16 18:43:00,
2013-06-16 14:52:00,71.0,64.0,29.77,SW,236,6.0,16.0,78,0.00,,,0.34,997.000000,,2013-06-16 18:52:00,
2013-06-16 15:01:00,72.0,64.0,29.77,WSW,243,12.0,20.0,77,0.00,,,0.34,998.000000,,2013-06-16 19:01:00,
2013-06-16 15:11:00,73.0,63.0,29.76,WSW,258,15.0,19.0,71,0.00,,,0.34,965.000000,,2013-06-16 19:11:00,
2013-06-16 15:22:00,74.0,63.0,29.76,WSW,240,8.0,16.0,68,0.00,,,0.34,947.000000,,2013-06-16 19:22:00,
2013-06-16 15:34:00,74.0,61.0,29.76,SW,214,12.0,20.0,63,0.00,,,0.34,933.000000,,2013-06-16 19:34:00,
2013-06-16 15:43:00,75.0,61.0,29.76,WSW,258,12.0,22.0,62,0.00,,,0.34,918.000000,,2013-06-16 19:43:00,
2013-06-16 15:53:00,75.0,61.0,29.76,SW,231,9.0,20.0,62,0.00,,,0.34,902.000000,,2013-06-16 19:53:00,
2013-06-16 16:02:00,76.0,61.0,29.76,SW,236,11.0,19.0,60,0.00,,,0.34,904.000000,,2013-06-16 20:02:00,
2013-06-16 16:11:00,76.0,62.0,29.77,SSW,198,11.0,21.0,61,0.00,,,0.34,995.000000,,2013-06-16 20:11:00,
2013-06-16 16:22:00,75.0,60.0,29.77,SW,221,10.0,19.0,59,0.00,,,0.34,325.000000,,2013-06-16 20:22:00,
2013-06-16 16:33:00,74.0,59.0,29.77,NW,326,11.0,24.0,60,0.00,,,0.34,309.000000,,2013-06-16 20:33:00,
2013-06-16 16:42:00,69.0,60.0,29.78,NNW,342,1.0,13.0,73,0.00,,,0.34,969.000000,,2013-06-16 20:42:00,
2013-06-16 16:53:00,69.0,59.0,29.78,NNW,331,3.0,10.0,70,0.00,,,0.34,380.000000,,2013-06-16 20:53:00,
2013-06-16 17:02:00,70.0,60.0,29.78,NW,307,8.0,12.0,71,0.00,,,0.34,895.000000,,2013-06-16 21:02:00,
2013-06-16 17:11:00,69.0,59.0,29.78,NW,311,9.0,13.0,71,0.00,,,0.34,237.000000,,2013-06-16 21:11:00,
2013-06-16 17:22:00,68.0,59.0,29.78,WNW,300,6.0,10.0,74,0.00,,,0.34,800.000000,,2013-06-16 21:22:00,
2013-06-16 17:33:00,69.0,60.0,29.78,WNW,298,9.0,13.0,72,0.00,,,0.34,701.000000,,2013-06-16 21:33:00,
2013-06-16 17:42:00,69.0,60.0,29.78,WNW,287,0.0,12.0,73,0.00,,,0.34,751.000000,,2013-06-16 21:42:00,
2013-06-16 17:53:00,68.0,59.0,29.79,NW,325,6.0,10.0,73,0.00,,,0.34,227.000000,,2013-06-16 21:53:00,
2013-06-16 19:01:00,65.0,60.0,29.79,SW,236,1.0,9.0,85,0.00,,,0.34,149.000000,,2013-06-16 23:01:00,
2013-06-16 19:11:00,67.0,60.0,29.79,SW,236,0.0,13.0,79,0.00,,,0.34,107.000000,,2013-06-16 23:11:00,
2013-06-16 19:22:00,67.0,60.0,29.79,NW,310,1.0,9.0,78,0.00,,,0.34,67.000000,,2013-06-16 23:22:00,
2013-06-16 19:32:00,63.0,57.0,29.79,NNW,338,11.0,18.0,81,0.01,,,0.35,151.000000,,2013-06-16 23:32:00,
2013-06-16 19:42:00,63.0,58.0,29.81,WNW,302,0.0,10.0,85,0.01,,,0.35,100.000000,,2013-06-16 23:42:00,
2013-06-16 19:52:00,64.0,59.0,29.80,NW,319,0.0,0.0,83,0.01,,,0.35,79.000000,,2013-06-16 23:52:00,
2013-06-16 20:02:00,65.0,59.0,29.80,NW,319,0.0,0.0,82,0.01,,,0.35,206.000000,,2013-06-17 00:02:00,
2013-06-16 20:11:00,66.0,60.0,29.79,West,270,0.0,0.0,80,0.01,,,0.35,190.000000,,2013-06-17 00:11:00,
2013-06-16 20:22:00,66.0,58.0,29.79,West,274,0.0,0.0,76,0.01,,,0.35,167.000000,,2013-06-17 00:22:00,
2013-06-16 20:32:00,67.0,60.0,29.79,West,271,0.0,0.0,77,0.00,,,0.35,134.000000,,2013-06-17 00:32:00,
2013-06-16 20:43:00,66.0,58.0,29.79,WSW,241,0.0,0.0,75,0.00,,,0.35,30.000000,,2013-06-17 00:43:00,
2013-06-16 20:52:00,66.0,60.0,29.79,WSW,241,0.0,0.0,81,0.00,,,0.35,21.000000,,2013-06-17 00:52:00,
2013-06-16 21:02:00,64.0,59.0,29.78,WSW,241,0.0,0.0,83,0.00,,,0.35,30.000000,,2013-06-17 01:02:00,
2013-06-16 21:12:00,64.0,59.0,29.79,WSW,241,0.0,0.0,85,0.00,,,0.35,16.000000,,2013-06-17 01:12:00,
2013-06-16 21:22:00,63.0,59.0,29.79,WSW,241,0.0,0.0,86,0.00,,,0.35,14.000000,,2013-06-17 01:22:00,
2013-06-16 21:32:00,62.0,57.0,29.79,WSW,241,0.0,0.0,84,0.00,,,0.35,7.000000,,2013-06-17 01:32:00,
2013-06-16 21:43:00,62.0,57.0,29.80,WSW,241,0.0,0.0,84,0.00,,,0.35,0.000000,,2013-06-17 01:43:00,
2013-06-16 21:53:00,61.0,56.0,29.80,WSW,241,0.0,0.0,85,0.00,,,0.35,0.000000,,2013-06-17 01:53:00,
2013-06-16 22:02:00,60.0,55.0,29.80,NW,323,0.0,0.0,85,0.00,,,0.35,0.000000,,2013-06-17 02:02:00,
2013-06-16 22:12:00,60.0,55.0,29.81,NW,313,0.0,0.0,85,0.00,,,0.35,0.000000,,2013-06-17 02:12:00,
2013-06-16 22:22:00,60.0,55.0,29.82,WNW,288,0.0,12.0,83,0.00,,,0.35,0.000000,,2013-06-17 02:22:00,
2013-06-16 22:34:00,59.0,54.0,29.82,WNW,302,0.0,11.0,84,0.00,,,0.35,0.000000,,2013-06-17 02:34:00,
2013-06-16 22:43:00,59.0,54.0,29.84,WNW,288,0.0,9.0,84,0.00,,,0.35,0.000000,,2013-06-17 02:43:00,
2013-06-16 22:53:00,59.0,54.0,29.85,West,279,9.0,18.0,85,0.00,,,0.35,0.000000,,2013-06-17 02:53:00,
2013-06-16 23:02:00,58.0,54.0,29.85,West,271,0.0,9.0,87,0.00,,,0.35,0.000000,,2013-06-17 03:02:00,
2013-06-16 23:12:00,58.0,54.0,29.85,West,273,0.0,8.0,88,0.01,,,0.36,0.000000,,2013-06-17 03:12:00,
2013-06-16 23:22:00,57.0,54.0,29.84,West,280,0.0,0.0,89,0.01,,,0.36,0.000000,,2013-06-17 03:22:00,
2013-06-16 23:33:00,56.0,53.0,29.83,SE,140,0.0,0.0,91,0.01,,,0.36,0.000000,,2013-06-17 03:33:00,
2013-06-16 23:44:00,56.0,54.0,29.82,SE,140,0.0,0.0,92,0.01,,,0.36,0.000000,,2013-06-17 03:44:00,
2013-06-16 23:53:00,56.0,54.0,29.82,SE,140,0.0,0.0,93,0.01,,,0.36,0.000000,,2013-06-17 03:53:00,